Brooksville, FL

9:35 AM EDT on April 23, 2017 (GMT -0400)
Hernando County

Weather History for KBKV - April, 2014

Change the Weather History Date:

Monday, April 7, 2014

  Actual Average Record
Temperature  
Mean Temperature 74 °F -  
Max Temperature 89 °F 79 °F 89 °F (1999)
Min Temperature 61 °F 54 °F 44 °F (2007)
Cooling Degree Days 9    
Growing Degree Days 24 (Base 50)    
Moisture  
Dew Point 64 °F    
Average Humidity 74    
Maximum Humidity 93    
Minimum Humidity 44    
Precipitation  
Precipitation 0.00 in - - ()
Sea Level Pressure  
Sea Level Pressure 29.89 in    
Wind  
Wind Speed 8 mph (South)    
Max Wind Speed 18 mph    
Max Gust Speed 30 mph    
Visibility 10 miles    
Events      
Averages and records for this station are not official NWS values.
T = Trace of Precipitation, MM = Missing Value Source: NWS Daily Summary

Daily Weather History Graph

Daily Weather History Graph

Search for Another Location

Airport or City:

Trip Planner

Search our weather history database for the weather conditions in past years. The results will help you decide how hot, cold, wet, or windy it might be!

Date:

Astronomy

Apr. 07, 2014 Rise Set
Actual Time 7:13 AM EDT 7:51 PM EDT
Civil Twilight 6:49 AM EDT 8:15 PM EDT
Nautical Twilight 6:21 AM EDT 8:43 PM EDT
Astronomical Twilight 5:52 AM EDT 9:11 PM EDT
Moon 1:20 PM EDT (4/7) 2:14 AM EDT (4/7)
Length of Visible Light 13h 25m
Length of Day
12h 38m
First Quarter, 53% of the Moon is Illuminated
Apr 7
First Quarter
Apr 15
Full
Apr 22
Last Quarter
Apr 29
New
May 6
First Quarter

Hourly Weather History & Observations

Time (EDT) Temp. Heat Index Dew Point Humidity Pressure Visibility Wind Dir Wind Speed Gust Speed Precip Events Conditions
12:53 AM 64.9 °F - 61.0 °F 87% 29.96 in 10.0 mi ESE 4.6 mph - N/A   Clear
1:53 AM 61.0 °F - 59.0 °F 93% 29.93 in 10.0 mi Calm Calm - N/A   Clear
2:53 AM 61.0 °F - 59.0 °F 93% 29.92 in 10.0 mi SSE 3.5 mph - N/A   Clear
3:53 AM 62.1 °F - 60.1 °F 93% 29.90 in 10.0 mi Calm Calm - N/A   Clear
4:53 AM 62.1 °F - 60.1 °F 93% 29.90 in 10.0 mi Calm Calm - N/A   Clear
5:53 AM 64.0 °F - 62.1 °F 93% 29.91 in 10.0 mi SE 6.9 mph - N/A   Clear
6:53 AM 64.9 °F - 63.0 °F 93% 29.93 in 10.0 mi SE 8.1 mph - N/A   Clear
7:53 AM 66.0 °F - 64.0 °F 93% 29.93 in 10.0 mi SE 11.5 mph - N/A   Clear
8:53 AM 69.1 °F - 64.9 °F 87% 29.93 in 10.0 mi SSE 13.8 mph - N/A   Clear
9:53 AM 73.9 °F - 66.0 °F 76% 29.91 in 10.0 mi South 13.8 mph - N/A   Clear
10:53 AM 80.1 °F 82.1 °F 66.0 °F 62% 29.92 in 10.0 mi SSE 13.8 mph - N/A   Clear
11:53 AM 82.9 °F 84.4 °F 64.0 °F 53% 29.91 in 10.0 mi South 12.7 mph 24.2 mph N/A   Clear
12:53 PM 84.9 °F 86.1 °F 64.0 °F 49% 29.90 in 10.0 mi South 17.3 mph 23.0 mph N/A   Clear
1:53 PM 87.1 °F 87.8 °F 63.0 °F 44% 29.90 in 10.0 mi SSW 17.3 mph 29.9 mph N/A   Clear
2:53 PM 87.1 °F 87.8 °F 63.0 °F 44% 29.87 in 10.0 mi SSW 17.3 mph 26.5 mph N/A   Partly Cloudy
4:53 PM 84.0 °F 84.9 °F 63.0 °F 49% 29.85 in 10.0 mi South 18.4 mph 26.5 mph N/A   Partly Cloudy
5:53 PM 82.0 °F 83.4 °F 64.0 °F 54% 29.86 in 10.0 mi SSW 17.3 mph - N/A   Clear
6:53 PM 80.1 °F 81.9 °F 64.9 °F 60% 29.86 in 10.0 mi SSW 13.8 mph 23.0 mph N/A   Partly Cloudy
7:53 PM 79.0 °F - 66.9 °F 66% 29.85 in 10.0 mi South 12.7 mph - N/A   Partly Cloudy
8:53 PM 77.0 °F - 68.0 °F 74% 29.83 in 10.0 mi South 15.0 mph 19.6 mph N/A   Clear
9:53 PM 77.0 °F - 69.1 °F 76% 29.86 in 10.0 mi South 9.2 mph - N/A   Clear
10:53 PM 75.9 °F - 69.1 °F 79% 29.87 in 10.0 mi South 9.2 mph - N/A   Clear
11:53 PM 75.0 °F - 69.1 °F 82% 29.86 in 10.0 mi South 8.1 mph - N/A   Clear